RH
56 51 53 56 51 29 16 17 16 14 10 5 4 4 3 3 2 3 4 5 5 3 2 2 2 2 2 2 2 3 3 3 4 5 5 5 5 5 5 5 5 5 4 5 5 4 5 5 6 5 8 13 11 10 10 9 9 15 26 30 30 26 21 19 15 13 12 12 12 14 16 19 26 31 27 22 27 31 26 26 29 31 36 36 40 48 54 58
58 55 54 58 53 29 17 17 15 16 11 4 4 4 3 3 3 4 4 5 5 3 2 2 2 2 2 2 3 4 4 4 5 6 4 5 5 5 5 5 5 5 5 5 4 5 6 6 7 6 13 19 14 14 14 11 11 17 29 29 22 21 20 17 14 13 12 13 14 15 16 19 24 25 23 19 25 31 30 40 49 46 42 37 36 42 48 53
57 57 56 59 52 29 19 18 15 18 12 4 4 3 4 3 4 4 3 4 4 4 2 2 3 3 3 4 4 5 4 5 5 5 5 5 6 5 6 5 5 5 5 6 6 6 6 7 7 7 16 20 15 16 13 10 13 17 24 20 12 17 19 14 13 13 13 14 15 16 16 17 21 20 19 19 22 27 29 42 56 50 40 34 31 32 34 38
53 54 56 57 47 28 24 24 18 17 11 5 4 4 4 4 5 4 2 3 3 4 3 3 3 4 5 5 6 6 5 5 5 5 5 6 6 6 6 5 6 5 6 6 6 7 6 7 6 8 18 21 16 16 12 9 14 17 17 14 10 13 15 13 14 14 14 16 16 18 18 18 24 24 22 22 23 27 26 30 35 35 33 33 33 32 32 33
46 51 53 50 39 29 29 28 20 17 11 5 5 5 5 5 4 3 2 2 2 3 3 2 3 4 5 6 7 8 8 5 5 6 6 6 6 6 6 6 6 6 6 6 6 7 6 7 7 10 15 15 13 13 12 11 17 20 15 12 13 13 14 15 15 15 16 17 18 18 16 19 27 25 22 23 24 27 27 27 28 30 32 34 35 35 36 39
41 50 48 38 30 27 29 28 22 19 13 6 6 6 5 5 3 2 2 2 2 2 2 3 3 4 5 5 6 7 8 6 5 6 6 6 6 6 6 6 6 6 6 6 7 7 7 8 10 10 10 9 10 11 10 13 19 21 15 12 15 15 15 16 15 16 16 15 16 16 15 19 23 21 21 25 27 29 29 30 30 31 32 32 34 35 39 45
35 46 46 37 28 21 19 20 20 16 9 6 6 6 5 3 2 2 2 2 2 2 3 4 4 4 5 5 5 6 6 5 6 7 6 6 6 6 6 6 6 6 6 7 7 7 8 8 9 10 10 10 10 10 10 13 16 16 13 13 15 14 15 16 16 17 17 15 16 15 14 16 18 21 24 26 28 30 30 30 30 30 31 30 31 33 39 47
30 40 46 42 28 16 13 14 16 12 6 6 6 5 4 2 2 2 2 2 2 3 3 5 5 5 6 5 6 6 5 5 6 7 6 6 6 6 6 6 7 6 6 7 6 7 8 8 8 9 10 10 10 11 11 13 15 13 14 14 13 13 16 18 18 19 17 15 15 15 14 13 16 23 26 28 29 29 28 27 29 30 29 29 31 34 37 43
29 39 47 41 26 19 19 16 14 11 6 7 6 4 4 2 2 2 2 2 2 3 3 5 6 5 5 5 5 6 6 6 6 7 7 6 6 6 6 6 6 6 6 7 7 8 8 8 9 9 9 9 10 11 11 13 14 12 14 16 14 14 18 18 16 18 18 16 16 15 14 14 18 24 27 28 29 27 25 25 28 27 27 29 30 31 36 42
26 37 42 31 22 21 23 18 11 8 7 7 6 4 3 2 2 2 2 3 2 3 4 5 6 5 6 6 5 6 6 6 7 7 6 6 6 6 6 6 6 6 7 7 8 8 8 9 9 9 9 9 10 10 11 13 12 12 16 19 16 13 18 19 16 18 18 17 16 12 13 17 23 28 29 29 28 24 23 25 25 23 25 29 25 24 33 42
27 38 35 24 18 13 16 16 8 6 7 6 5 3 2 2 2 2 3 3 3 4 5 6 6 6 5 6 6 6 6 7 7 6 6 6 6 6 6 6 6 6 7 8 8 8 9 9 9 9 9 9 9 10 12 12 11 13 17 21 18 15 22 24 20 19 16 15 15 11 14 22 27 30 28 28 27 23 22 24 23 20 23 26 23 21 27 37
30 38 31 20 12 6 10 11 5 5 6 5 3 2 2 3 2 3 4 4 5 5 6 7 6 6 5 6 6 6 7 7 7 7 6 6 6 7 6 6 7 7 8 8 8 9 9 9 9 10 10 9 10 11 13 11 12 14 16 20 20 21 26 25 22 19 14 14 13 10 17 28 28 26 26 27 28 24 23 24 21 20 21 23 25 26 27 37
23 29 23 14 8 7 9 6 5 5 4 4 3 3 3 3 4 4 4 5 6 6 6 7 6 6 6 7 6 6 7 7 6 6 6 7 6 6 7 7 7 8 9 8 9 9 9 9 10 11 10 9 10 12 12 10 12 14 15 20 20 21 26 24 22 22 16 13 13 9 15 26 25 23 27 29 31 27 24 25 25 24 23 24 29 30 30 41
16 18 15 12 10 9 8 4 4 4 3 4 2 3 3 3 5 5 6 6 6 7 6 6 6 6 7 6 7 7 7 6 6 6 6 6 6 7 7 8 8 8 9 9 9 10 9 10 11 11 9 9 10 12 13 12 13 12 18 26 23 22 26 26 25 25 18 12 13 10 11 24 27 26 31 32 34 32 28 29 30 29 29 30 34 34 35 46
12 11 10 11 10 7 6 4 3 3 3 3 3 4 3 4 6 6 7 6 7 7 6 6 6 6 6 6 6 7 7 7 7 6 6 6 6 7 8 8 9 9 9 9 10 10 10 11 10 10 10 11 10 14 19 17 13 12 21 30 27 23 24 27 27 24 19 13 11 10 15 30 34 30 32 33 35 35 32 33 34 34 36 39 42 40 40 47
9 10 10 9 8 6 4 3 3 4 4 5 5 5 4 5 7 7 7 7 7 6 6 6 6 6 6 6 7 7 7 7 7 7 7 7 8 8 9 9 9 9 10 10 10 10 10 10 9 9 10 11 11 16 23 21 14 14 20 25 25 24 24 27 26 21 17 13 10 12 22 35 36 32 32 33 36 38 35 35 38 40 42 44 45 42 43 50
8 10 9 6 5 4 3 4 4 6 6 7 8 7 7 7 7 7 7 7 7 6 7 7 7 7 6 6 7 7 7 6 7 7 7 8 9 9 9 9 9 10 10 10 11 10 10 10 9 10 9 11 10 12 21 23 21 20 20 20 22 23 27 27 23 20 18 16 14 17 27 36 33 31 33 33 36 38 37 39 40 43 47 46 43 41 43 49
9 10 7 4 4 4 5 5 5 6 7 8 8 8 8 8 8 9 8 8 8 8 8 8 9 9 6 7 7 6 6 7 7 7 8 9 9 10 10 10 9 10 10 11 11 10 11 11 9 10 9 11 12 11 18 25 27 26 24 25 22 20 25 26 22 22 25 27 26 25 31 36 34 34 34 34 37 38 38 42 43 46 49 47 47 44 40 47
10 8 5 4 5 5 5 5 6 7 7 8 8 8 8 8 8 8 8 8 8 8 8 7 8 7 7 7 6 7 7 7 7 8 9 9 10 11 10 10 10 10 11 11 11 10 11 10 9 10 11 13 15 16 20 23 23 24 28 31 25 20 23 23 20 22 30 32 30 31 34 36 36 35 35 36 39 39 40 44 46 48 50 50 53 47 36 43
9 6 5 5 5 5 5 8 8 9 9 8 8 8 8 8 8 8 8 8 7 7 7 7 7 6 7 7 6 7 7 8 8 9 10 10 11 11 10 10 10 11 11 10 11 11 12 10 10 13 14 15 16 18 21 21 21 25 29 29 24 23 22 18 18 21 29 31 27 33 37 37 37 36 38 40 40 40 42 47 48 49 52 54 55 49 41 46
7 5 5 5 5 6 7 9 9 9 9 9 9 9 8 9 9 8 8 7 7 7 7 7 6 6 6 6 7 7 8 9 10 10 10 10 11 11 10 11 11 10 11 11 11 12 11 10 13 15 15 15 15 18 20 20 24 27 28 25 22 26 21 15 18 21 27 31 32 35 35 36 39 37 38 39 39 41 42 47 49 50 54 52 48 48 53 62
6 5 5 5 6 7 8 9 9 9 9 9 9 9 9 9 9 9 7 7 7 7 7 7 7 7 7 7 7 7 9 10 11 11 10 11 11 11 11 11 11 11 11 12 12 13 12 13 16 16 15 16 16 18 19 19 24 28 28 25 21 24 22 16 16 20 26 33 36 37 34 36 40 37 37 38 38 40 42 47 49 50 49 42 41 47 58 67
5 5 5 5 6 8 9 9 9 9 9 10 9 9 10 9 9 9 8 7 8 7 7 7 7 7 7 8 8 8 9 10 11 11 10 11 11 11 11 11 11 12 12 13 13 13 14 16 18 16 16 18 18 19 19 18 21 27 29 26 20 19 24 23 18 20 28 35 38 37 34 35 38 35 34 36 37 39 43 44 43 45 43 42 48 54 60 63
5 5 5 6 7 9 9 10 10 10 10 10 9 10 10 10 10 9 8 8 8 8 8 8 8 7 7 7 8 9 9 10 11 11 11 11 11 12 11 11 12 11 12 13 13 14 16 18 18 17 19 19 19 19 19 19 21 27 28 24 20 18 22 24 22 25 32 37 39 36 33 33 33 32 33 35 37 38 40 40 41 44 48 59 65 59 58 54
4 6 6 7 9 9 10 10 10 10 10 10 10 10 10 10 10 9 9 8 8 9 9 9 8 8 8 8 8 10 10 10 11 11 12 12 12 13 12 12 12 11 13 15 14 15 17 19 18 19 20 19 20 19 20 20 20 25 26 21 20 20 21 22 25 34 39 37 36 35 37 36 31 32 33 33 34 37 38 40 44 51 65 80 76 60 55 50
5 6 7 9 10 9 9 9 9 9 9 10 10 10 10 10 10 11 11 11 9 8 9 10 10 8 8 8 8 11 12 11 11 12 13 12 12 13 12 13 13 13 14 17 18 17 17 20 19 20 21 19 21 21 21 22 20 23 23 19 20 21 22 24 31 44 46 38 33 34 39 39 33 32 32 32 35 37 38 43 51 65 78 78 65 53 49 46
6 7 8 9 8 8 8 7 8 7 7 9 9 10 10 9 11 12 14 20 16 8 8 9 9 9 8 9 9 11 12 12 12 13 13 14 13 13 13 13 14 14 15 18 20 18 18 20 20 20 21 20 22 23 23 23 23 23 20 19 21 22 25 28 35 45 43 37 34 32 34 35 32 31 32 33 35 38 42 51 60 63 60 53 50 51 48 42
6 7 7 8 7 7 7 8 7 6 7 8 7 8 8 9 13 11 14 25 19 8 9 9 8 9 8 9 10 10 12 12 13 13 14 14 14 14 14 14 15 16 16 18 20 19 19 20 20 20 21 21 23 23 24 24 25 24 21 21 23 26 28 30 37 40 35 38 37 29 31 38 35 31 33 35 36 43 48 51 52 48 44 46 49 49 44 34
6 7 7 8 8 8 7 8 7 7 7 7 7 8 8 10 13 11 13 22 16 7 10 10 8 10 9 9 10 11 12 12 13 14 14 14 14 14 15 14 16 17 17 18 19 19 19 20 21 22 22 23 23 23 25 26 27 25 24 24 23 26 28 31 38 37 34 42 39 29 31 42 42 33 32 36 37 41 43 41 42 42 45 50 48 45 40 24
6 8 9 9 9 8 7 7 7 7 7 7 9 10 10 11 12 16 18 16 11 8 10 10 8 10 9 10 11 11 13 13 13 15 15 15 15 15 15 16 17 18 18 18 18 19 20 21 22 23 24 24 23 24 25 27 28 28 28 27 25 27 28 30 33 32 37 42 34 28 32 43 51 40 29 32 34 35 38 39 41 43 48 51 46 41 31 12
8 9 9 9 8 8 7 7 8 9 8 9 10 10 11 9 9 18 19 12 9 10 9 9 9 9 9 10 11 12 13 13 14 15 15 15 16 16 16 17 17 20 22 20 19 21 22 23 23 23 24 24 24 25 26 29 29 30 31 30 30 31 29 30 30 31 42 44 32 29 35 45 55 43 28 31 34 36 40 41 42 47 52 52 47 37 17 4
10 10 9 8 8 7 7 8 9 10 11 10 10 10 11 11 12 16 14 10 12 11 8 9 10 10 10 11 11 12 13 13 14 14 15 15 16 16 17 18 18 23 26 23 21 23 24 24 25 25 25 25 25 25 27 30 29 31 32 30 35 39 38 41 39 38 45 43 33 32 40 49 48 36 31 34 36 39 42 42 44 51 54 52 50 37 13 2
10 10 9 7 7 6 6 8 10 12 12 11 12 11 10 15 18 14 8 9 12 9 8 10 10 10 11 11 11 12 13 13 14 15 15 16 16 17 19 20 20 22 25 25 24 25 28 29 26 26 27 26 26 26 28 31 30 32 33 33 41 47 53 58 52 49 50 41 34 36 44 49 40 32 34 37 38 42 42 42 47 54 55 54 49 32 9 2
9 8 7 5 5 5 6 7 9 10 11 12 12 11 10 15 16 10 7 9 10 8 9 10 10 10 11 11 12 12 12 13 14 15 16 16 17 19 20 21 22 22 24 27 26 26 32 35 29 27 28 28 27 27 29 31 32 34 34 36 40 43 52 60 54 54 56 49 44 42 41 41 37 35 38 39 41 42 41 44 51 53 51 50 41 21 5 3
8 6 5 4 4 4 5 6 7 9 10 11 10 10 14 16 11 8 8 9 8 8 9 10 10 11 11 11 12 12 13 14 14 15 16 17 18 19 21 21 22 23 24 27 28 25 30 33 29 27 29 29 27 27 29 31 32 35 35 36 39 41 44 49 49 48 52 57 55 45 38 36 37 39 41 42 42 40 43 47 50 51 48 43 31 12 3 4
6 5 4 5 5 5 5 6 7 8 9 10 8 9 14 14 8 7 9 8 8 8 9 10 11 11 11 11 12 13 13 14 14 16 16 17 20 20 21 22 23 24 25 26 28 28 29 29 28 29 30 30 29 28 30 32 33 35 37 38 40 41 43 49 54 47 49 64 59 42 39 40 41 45 42 42 41 41 46 49 49 49 45 38 22 7 4 4
5 4 5 6 6 6 6 6 7 8 8 9 9 8 9 9 7 8 8 8 8 8 9 10 11 11 11 12 13 13 14 14 15 16 16 18 20 21 22 23 24 25 26 27 29 30 31 29 28 30 32 31 31 30 31 32 34 35 38 40 40 42 46 51 56 56 62 72 58 42 44 46 49 52 44 39 43 44 48 50 48 44 39 31 18 7 4 3
4 4 5 7 7 7 7 7 8 8 8 8 8 8 8 8 8 8 7 8 8 8 9 10 10 11 11 12 13 13 14 15 16 17 18 19 20 22 23 24 25 27 27 28 29 31 33 32 30 32 34 34 33 33 33 34 36 36 38 40 40 46 51 49 54 67 76 78 63 48 49 49 48 48 42 41 45 46 49 49 44 39 33 26 15 7 4 3
4 5 6 7 8 8 7 8 8 8 8 8 8 8 8 8 8 8 8 8 8 8 9 10 10 11 11 12 13 13 14 15 16 18 19 20 20 22 24 24 26 28 28 30 30 31 34 35 34 34 35 36 34 34 34 34 37 38 40 42 42 44 49 47 51 60 69 79 75 64 58 51 43 42 43 45 46 47 50 47 40 37 32 24 15 7 4 3
5 6 7 7 8 8 7 8 8 8 8 8 8 8 8 8 8 8 8 8 8 9 9 10 10 11 12 13 13 14 15 16 17 18 19 20 20 22 24 24 27 29 29 31 32 32 34 36 37 36 36 38 37 36 35 33 37 40 41 44 44 43 45 50 54 53 58 73 79 78 72 51 38 44 46 45 48 50 52 48 40 37 32 23 16 8 3 3
6 7 8 8 8 8 8 8 7 7 7 8 8 8 8 8 8 8 8 8 9 9 9 10 11 11 12 13 14 14 15 16 17 18 19 20 21 22 24 25 27 29 31 32 33 34 35 37 38 37 37 38 37 36 36 35 38 40 43 44 43 44 47 55 63 57 55 63 67 77 80 55 38 46 47 46 52 53 52 49 42 38 32 23 17 9 3 3
7 8 8 8 8 8 8 8 8 8 7 8 8 8 8 8 7 8 8 8 9 9 10 10 11 12 13 13 14 15 15 16 17 18 19 21 22 22 24 25 27 29 32 33 34 36 36 38 39 38 40 40 39 38 38 38 38 40 45 45 44 48 49 54 61 56 55 61 58 67 78 58 40 46 48 48 54 54 53 51 43 38 31 23 18 11 4 3
8 8 7 7 7 7 8 7 8 8 7 8 8 8 9 8 8 8 8 8 9 9 10 10 11 12 13 13 14 15 16 16 17 19 20 21 22 23 24 26 27 29 32 34 35 37 38 40 40 40 42 41 39 38 38 37 40 43 47 46 46 49 49 50 54 53 56 60 57 69 82 60 40 46 50 51 55 55 55 52 45 38 31 24 20 12 5 3
8 7 7 7 7 8 8 8 8 8 8 8 8 9 9 9 8 8 8 9 9 10 11 11 11 12 13 14 15 15 16 17 17 19 20 21 22 23 25 26 27 29 32 34 36 38 39 42 42 44 49 50 45 44 42 41 44 48 49 48 46 47 48 50 53 56 62 59 57 75 82 57 42 50 52 53 56 55 54 53 46 38 31 25 21 14 7 4
7 7 7 7 7 7 8 8 8 8 8 8 9 10 10 9 9 8 8 9 9 10 11 11 12 12 13 14 15 16 17 17 18 19 20 22 23 24 25 26 28 29 31 34 37 38 40 41 42 46 54 59 56 53 49 47 48 49 48 48 48 47 47 49 53 61 65 59 56 66 66 51 48 52 52 56 58 55 54 53 45 38 32 27 22 17 10 4
7 7 7 7 7 7 8 8 8 8 8 9 9 10 10 10 9 8 9 9 10 10 11 11 12 13 14 15 15 17 17 18 19 19 20 22 23 24 26 26 27 29 31 34 36 38 39 39 41 44 47 50 50 48 47 48 49 49 49 50 50 49 47 48 53 58 58 55 55 56 54 52 53 53 55 59 60 58 55 51 44 38 34 28 23 20 13 6
6 6 6 6 7 7 7 8 8 8 9 9 9 10 10 11 10 9 9 9 10 11 11 12 12 13 14 15 16 17 18 18 19 20 21 22 23 25 26 26 28 29 31 34 36 38 39 38 40 44 44 45 45 44 45 48 49 50 51 51 50 50 47 46 51 53 51 55 58 54 52 56 55 55 59 60 60 60 57 51 46 41 35 31 25 21 17 10
6 6 6 6 7 7 8 8 8 9 9 9 10 10 11 11 11 10 10 10 10 11 12 12 13 13 14 16 17 18 18 19 20 20 21 22 23 25 26 27 28 29 31 34 36 38 40 39 40 43 43 42 43 43 44 47 50 49 49 49 48 48 46 46 50 51 50 54 58 55 56 57 56 57 61 60 59 61 58 54 50 44 38 34 28 23 20 14
5 6 6 6 6 7 8 9 9 9 9 10 10 11 11 12 12 11 11 11 11 11 12 12 13 14 15 16 18 18 19 20 20 21 22 23 24 25 25 27 28 29 31 34 35 39 40 39 40 44 42 38 40 43 44 47 48 45 44 45 44 44 45 47 51 52 53 55 56 57 58 58 58 60 61 59 59 60 61 59 54 48 43 37 31 26 23 18
5 5 5 5 6 7 8 9 10 10 10 10 10 11 12 12 12 12 11 11 11 12 12 13 13 14 15 16 18 19 20 21 21 22 23 23 24 25 26 27 29 30 32 33 35 39 40 40 42 44 42 37 38 43 45 49 50 46 43 44 45 47 47 48 52 54 55 57 58 60 60 58 60 63 61 59 59 59 62 62 59 55 48 41 35 29 24 21
4 5 5 5 6 7 8 9 10 10 10 10 11 12 13 13 13 13 12 11 12 12 13 14 14 15 15 16 18 19 20 21 22 23 24 24 25 26 27 28 29 31 32 33 35 37 39 41 42 45 45 39 38 45 47 48 50 47 42 42 45 49 50 50 53 55 55 57 59 60 57 56 61 65 63 61 61 60 61 63 64 61 54 47 40 33 27 23
4 4 5 6 6 8 9 9 10 10 10 11 12 12 13 13 14 14 13 12 12 12 13 14 15 15 16 17 18 19 21 22 23 24 24 25 25 26 27 28 29 31 32 33 35 36 39 41 40 47 50 41 39 45 45 47 52 47 40 41 45 48 50 51 53 55 56 57 57 55 52 54 63 66 64 64 63 62 63 64 66 66 62 56 47 37 31 25
Wind_Speed
12 10 8 6 7 7 7 6 6 7 7 6 6 7 8 8 9 11 11 12 13 13 13 13 14 13 14 12 12 13 12 17 18 13 10 11 13 15 14 14 13 14 14 14 13 14 16 18 16 15 17 18 16 16 17 17 17 17 15 7 4 9 14 15 17 18 19 22 24 24 24 25 23 25 29 27 26 29 33 34 34 33 30 29 31 31 32 33
11 10 8 6 6 6 6 5 5 6 6 6 6 7 8 8 9 11 11 12 12 13 13 13 13 13 13 13 14 15 13 18 17 10 10 14 14 14 13 13 13 14 15 14 16 17 17 16 15 16 14 9 11 14 16 16 16 15 12 5 6 9 13 15 17 18 21 23 23 25 25 25 23 26 29 26 23 27 31 31 31 32 30 30 33 34 35 36
11 9 8 6 5 6 5 4 5 4 4 6 6 7 8 9 10 11 11 12 12 12 12 11 12 12 12 12 14 15 14 17 15 11 13 14 12 12 12 12 12 14 15 15 17 17 16 15 16 17 13 6 11 14 14 14 13 12 9 7 9 7 11 17 17 19 21 21 24 25 27 26 27 29 30 29 26 26 28 27 29 32 31 29 31 33 35 37
12 10 9 7 6 6 4 3 4 3 4 6 6 7 9 10 10 10 11 12 13 12 11 12 12 11 10 10 11 11 12 16 13 11 13 11 11 11 11 11 13 15 15 16 16 15 15 15 17 17 13 9 13 15 14 14 13 12 12 11 11 9 12 18 17 19 18 21 25 25 27 28 28 31 31 32 30 27 26 24 26 29 33 33 33 35 36 37
13 12 10 9 8 6 5 2 1 2 4 6 6 8 10 10 10 11 12 13 13 12 12 13 12 12 12 11 10 8 7 12 12 11 11 10 10 11 11 12 14 15 15 16 16 16 17 17 17 14 11 10 13 14 13 14 14 14 15 13 12 12 15 18 18 18 17 22 26 25 29 27 24 31 31 31 29 26 24 22 24 30 35 38 37 37 36 35
13 13 12 12 9 6 5 3 1 2 4 5 6 9 9 9 10 11 12 12 12 12 12 12 11 10 11 12 13 10 7 9 10 10 10 9 10 12 13 14 16 15 16 17 17 17 17 16 13 11 12 13 14 13 12 14 12 11 14 15 14 15 17 17 19 21 24 29 29 29 33 24 21 29 28 25 25 23 22 23 29 35 37 38 37 37 36 35
11 13 14 12 9 6 5 4 3 4 4 5 6 9 9 10 11 11 11 11 11 12 12 11 10 9 9 11 13 11 8 10 10 10 10 11 13 14 14 16 18 17 17 17 15 16 15 14 12 12 13 13 13 12 13 15 14 13 15 15 16 18 19 16 20 24 29 32 30 33 35 28 24 26 25 23 23 22 23 28 33 35 35 36 37 38 37 36
12 14 14 13 9 6 4 3 4 4 4 6 7 8 9 10 11 11 11 11 11 11 11 10 9 8 8 9 11 9 7 10 10 10 12 13 15 14 15 17 17 16 15 14 15 15 13 13 13 13 12 12 14 12 13 15 15 15 14 14 17 22 20 16 20 24 28 30 30 34 34 33 30 24 24 23 23 25 29 33 33 31 32 34 36 37 38 38
13 15 15 13 9 6 4 4 4 3 5 7 6 8 9 10 10 10 9 10 9 10 9 9 9 9 9 8 10 10 8 10 11 12 13 13 14 15 16 17 15 15 15 14 15 13 12 13 14 13 12 13 15 11 12 13 15 16 13 15 20 24 21 18 23 26 29 30 33 37 33 32 29 23 23 24 27 31 33 34 32 32 33 33 34 37 39 37
13 15 15 12 9 6 5 5 5 4 6 7 7 8 10 9 9 8 8 8 8 8 9 8 8 8 9 8 9 12 11 10 12 14 14 13 14 16 16 15 14 14 14 14 13 12 13 14 13 13 13 15 14 11 12 14 17 18 16 18 23 25 21 19 25 29 30 29 34 38 32 29 25 21 23 26 31 34 34 34 34 36 34 32 36 40 41 38
14 16 16 13 9 7 6 5 5 6 7 7 8 9 9 9 8 8 8 9 8 8 8 8 6 6 8 9 9 11 12 12 14 14 13 14 15 15 15 15 14 14 13 13 12 12 14 14 14 14 15 15 13 11 12 15 20 22 20 19 22 22 15 15 24 30 32 32 35 37 29 25 21 20 25 28 32 34 36 35 36 39 35 33 38 42 42 38
15 17 16 12 8 7 8 7 6 7 8 8 9 9 9 8 8 8 8 9 9 8 7 7 6 5 9 9 7 11 13 13 13 13 13 14 15 14 14 14 13 13 13 13 12 13 14 15 16 16 16 15 13 10 10 18 23 23 20 15 17 15 7 16 25 29 34 34 36 35 24 19 20 24 28 29 31 35 37 35 36 39 36 35 40 45 45 39
13 15 13 10 9 9 9 8 7 9 10 10 10 9 8 8 7 7 8 8 9 9 8 8 7 7 9 9 9 12 13 11 11 12 14 14 14 13 13 12 13 12 12 13 13 14 15 17 18 15 14 15 14 10 11 21 24 22 18 13 18 13 3 17 25 28 34 33 35 34 23 19 25 27 27 28 31 36 37 34 34 37 37 36 41 47 47 39
11 12 11 10 11 10 9 9 9 11 12 11 10 9 8 8 7 8 8 9 9 8 9 8 8 8 8 9 12 13 12 11 12 13 14 13 12 12 11 12 13 13 13 14 14 15 17 18 15 13 14 16 15 13 15 21 21 22 17 11 18 16 9 17 22 27 32 31 32 32 24 22 27 27 27 30 33 35 35 32 32 34 35 36 40 46 47 42
9 11 12 12 11 10 10 10 11 11 11 10 9 8 8 8 8 8 9 10 10 9 9 8 9 8 7 9 12 12 13 13 13 13 13 13 13 13 12 12 13 13 14 14 14 15 17 15 12 13 16 17 18 16 12 15 20 22 16 10 18 21 19 16 18 27 29 29 31 28 23 19 24 26 28 31 32 33 34 33 31 31 33 35 37 41 44 45
8 10 12 12 11 12 12 12 11 11 11 10 8 8 9 9 8 9 9 9 10 10 9 8 10 9 8 10 12 11 11 10 10 12 13 13 13 13 12 12 14 15 14 14 14 16 17 15 13 15 16 16 21 18 6 10 21 23 18 17 21 23 21 14 16 25 28 30 29 25 21 16 21 26 28 30 30 32 34 34 31 30 33 34 36 39 43 44
9 11 11 12 13 13 13 12 12 11 11 11 10 9 9 9 9 9 9 10 10 11 10 9 10 10 10 12 11 10 10 10 11 12 13 14 14 13 13 13 15 15 14 15 15 17 17 15 15 15 17 18 21 20 9 10 19 21 21 23 25 24 20 18 22 24 26 30 27 23 19 16 23 26 28 29 29 32 35 36 31 30 33 34 36 41 44 43
11 12 12 14 14 14 13 13 11 11 11 11 11 11 10 10 10 9 10 11 10 10 10 9 9 10 11 12 10 10 12 12 10 12 13 14 14 14 14 14 15 15 14 14 12 16 17 13 13 16 21 23 23 26 21 15 15 19 20 22 27 28 22 22 25 23 22 26 23 20 18 16 24 26 28 30 29 32 36 34 31 31 32 33 35 41 45 45
12 12 13 14 14 14 14 13 11 11 10 10 10 10 10 9 9 9 9 9 8 8 10 11 10 11 13 12 11 12 13 12 11 13 14 15 14 13 14 15 16 16 15 13 11 16 17 13 15 21 26 27 27 30 27 18 16 19 16 17 27 30 26 24 23 21 20 22 19 17 17 17 23 28 29 30 30 32 34 32 30 31 32 32 34 41 49 47
13 13 14 14 15 14 14 14 12 12 12 11 10 10 10 10 9 8 8 8 9 11 13 14 12 13 14 11 11 12 11 11 14 15 14 15 14 13 15 16 16 13 12 13 14 17 17 16 21 27 26 26 28 28 25 21 18 18 14 18 27 27 27 24 20 20 18 20 18 14 16 18 24 28 28 29 29 30 31 29 30 31 30 33 36 42 47 44
14 14 14 15 15 15 15 15 13 12 12 12 11 10 11 12 11 8 8 10 13 14 14 14 13 14 13 12 12 11 11 13 15 15 14 15 13 14 16 15 14 12 11 15 18 18 17 20 25 25 23 24 27 27 27 23 17 15 15 24 30 25 26 23 20 20 15 17 17 12 17 21 25 26 26 27 27 29 29 27 29 30 31 37 42 44 42 38
14 14 15 15 15 15 15 14 12 10 10 11 11 11 11 12 12 9 9 13 16 15 15 15 14 12 12 12 11 11 11 12 12 13 15 15 14 14 15 14 14 14 13 15 20 19 19 24 25 22 23 24 26 26 27 24 18 15 17 27 32 26 25 22 21 21 15 15 15 12 19 23 24 24 24 25 26 27 26 26 30 31 34 41 44 43 40 40
15 14 14 15 15 14 14 13 11 10 10 10 10 12 12 12 13 11 11 15 16 15 15 15 13 11 10 9 10 10 9 9 11 14 16 15 15 14 14 14 14 15 13 13 18 21 21 23 22 22 24 24 25 26 26 26 22 15 17 28 32 27 22 21 24 23 15 14 12 13 21 23 21 21 23 25 25 24 25 28 33 34 39 42 40 40 41 45
15 14 13 14 14 14 14 13 12 11 11 11 11 12 13 13 13 12 13 15 15 15 15 14 12 10 9 7 7 8 9 11 13 15 16 16 16 15 15 15 16 16 14 12 15 21 22 21 21 23 24 24 24 25 27 28 25 17 19 28 28 23 19 18 22 23 16 11 10 16 20 17 19 23 24 24 23 25 28 32 35 39 40 36 33 39 44 49
15 14 13 15 15 14 14 13 12 11 10 10 11 12 12 11 10 9 11 12 12 13 11 10 10 9 9 7 6 6 8 12 13 14 15 16 16 15 16 16 16 17 16 13 13 18 21 20 21 23 23 23 24 26 27 28 27 21 21 28 24 18 18 15 17 20 17 11 12 17 12 10 19 25 25 25 26 29 32 34 37 38 33 27 31 43 50 51
15 14 15 15 14 13 12 9 8 8 7 8 9 9 9 8 7 7 8 8 10 11 8 7 7 8 8 7 7 6 6 11 14 15 15 15 16 16 16 15 16 17 16 14 12 13 18 21 21 22 22 23 23 25 26 27 27 25 25 27 19 13 16 13 13 16 14 13 14 10 8 14 23 23 24 27 28 30 33 35 35 31 27 30 40 50 52 49
15 15 15 13 10 10 8 5 5 6 6 7 8 7 6 4 4 5 5 4 5 8 7 6 6 7 7 8 9 7 7 10 13 15 16 15 16 16 16 15 15 16 16 14 11 10 15 20 21 21 21 23 23 24 26 26 26 27 29 27 18 14 14 10 12 13 12 16 11 4 13 21 19 20 25 27 26 29 31 30 28 31 37 43 49 51 48 45
15 15 13 9 7 6 5 4 5 6 6 7 7 6 5 2 3 2 2 1 1 4 3 4 5 5 7 8 9 9 9 11 11 13 15 15 15 15 16 15 13 15 17 14 10 9 13 18 20 20 21 24 24 24 26 25 26 29 32 29 19 14 12 9 11 10 10 14 8 8 20 16 14 23 25 22 23 25 26 28 33 42 46 48 50 47 45 47
15 14 10 7 6 4 3 4 4 5 6 7 7 6 5 4 4 3 0 0 1 1 2 3 4 4 6 7 8 10 10 11 11 12 14 15 15 15 16 16 12 12 17 16 13 11 12 16 20 21 22 24 23 24 25 24 27 31 34 33 21 12 11 7 8 9 10 10 5 14 23 12 13 21 16 16 23 26 30 36 42 46 46 48 49 45 47 53
14 11 8 6 5 3 3 4 4 5 5 5 6 5 4 4 4 2 0 1 2 2 1 2 3 4 5 6 8 9 9 10 10 11 12 15 15 14 15 17 13 12 16 18 15 12 11 13 19 21 22 23 21 23 25 23 28 32 34 34 23 14 11 5 6 9 8 5 4 15 23 15 9 9 12 23 30 34 38 42 44 46 46 48 47 46 51 55
12 9 6 5 4 3 4 4 4 4 4 6 6 5 5 5 3 1 1 2 4 4 3 1 2 4 5 6 7 7 8 9 9 10 11 13 13 13 15 18 17 11 12 17 17 14 11 10 17 21 20 21 20 23 24 22 27 30 31 33 24 13 7 1 3 4 3 3 6 18 27 17 8 11 22 31 35 38 41 42 46 46 46 47 47 50 55 54
9 6 5 3 3 4 4 4 4 4 5 6 6 6 5 4 2 2 2 5 6 5 3 1 2 3 4 5 6 6 7 9 9 9 10 13 15 15 17 20 20 12 7 14 18 16 11 8 14 20 21 22 20 22 24 21 25 29 32 34 22 8 5 2 2 3 4 6 13 25 27 15 12 18 28 34 38 40 39 44 46 43 46 48 47 54 59 55
7 5 3 3 4 4 4 5 5 5 4 4 5 6 5 4 2 3 5 7 4 5 5 2 2 2 3 3 5 7 8 9 9 10 10 13 15 18 19 19 20 16 10 13 16 16 11 7 12 18 21 23 21 22 23 20 23 28 31 31 17 5 5 5 3 4 4 10 24 31 20 12 16 22 30 36 37 36 40 46 45 43 45 46 48 57 59 55
5 4 4 4 4 4 5 6 6 4 4 4 4 5 4 3 3 4 9 7 3 6 6 3 2 2 2 2 5 7 8 9 9 10 11 12 15 17 17 17 19 19 16 14 15 16 10 5 11 16 19 22 20 18 21 20 20 23 25 24 14 5 2 2 4 5 8 19 32 26 11 11 19 25 32 32 28 35 45 45 41 42 44 46 52 58 57 54
5 4 5 4 4 4 5 6 6 5 4 4 4 5 4 3 4 5 9 7 5 7 7 4 3 1 1 2 5 6 7 9 9 9 10 11 13 15 16 17 17 18 18 15 13 16 11 7 11 15 17 21 18 16 19 18 16 18 21 21 15 6 1 6 10 13 17 21 20 14 11 17 24 29 30 24 29 41 44 39 38 42 46 49 54 56 55 54
5 5 5 4 4 4 5 6 6 5 5 4 4 5 4 2 3 5 7 7 7 7 7 5 4 2 1 1 3 5 7 8 9 8 10 10 11 13 15 16 17 17 18 16 14 16 13 8 10 14 18 20 16 14 17 16 16 17 18 19 16 8 4 7 12 15 15 11 8 12 19 25 27 26 22 24 37 42 35 35 40 43 48 51 54 56 54 52
5 6 5 4 4 5 5 6 6 5 5 4 4 4 3 2 3 5 6 7 8 8 7 6 4 3 2 1 1 4 6 7 9 9 10 10 9 11 15 15 16 17 18 17 15 17 15 10 10 15 20 21 16 14 15 16 18 17 14 16 15 8 6 8 8 9 7 4 8 13 20 29 26 17 21 32 38 34 30 36 43 47 51 53 55 55 52 51
6 6 5 4 4 5 5 5 5 5 4 4 4 3 3 3 4 5 6 6 7 8 8 7 5 4 3 2 2 3 5 6 9 8 8 10 9 10 13 14 16 16 16 16 16 18 15 11 12 16 20 21 16 15 16 17 19 18 16 17 16 7 4 9 7 5 3 3 7 10 16 26 22 15 27 39 36 32 35 42 48 52 53 54 55 54 52 51
6 6 6 5 6 5 5 5 5 4 3 2 2 2 2 3 4 6 6 6 7 7 7 7 6 5 4 2 2 3 4 6 8 8 7 9 10 10 11 13 15 16 16 15 16 19 15 9 11 18 21 20 16 13 13 16 20 21 20 19 16 8 5 9 5 4 3 2 6 9 13 21 21 21 31 36 34 34 40 47 52 52 53 54 55 54 52 50
6 6 6 6 6 5 5 5 5 4 4 2 2 1 2 3 4 6 6 6 6 6 6 6 6 5 5 3 2 3 4 5 7 7 7 8 9 9 10 12 14 16 16 15 16 18 15 8 10 20 22 17 15 13 13 16 18 20 21 17 15 13 10 10 7 7 5 2 3 6 10 24 28 23 27 34 34 36 42 48 51 51 52 53 53 53 52 49
6 6 6 6 6 5 4 5 5 5 5 3 2 3 3 3 5 5 7 6 6 7 6 6 6 6 5 4 3 3 4 5 6 7 7 8 8 9 9 11 14 15 16 16 15 18 15 8 13 22 21 16 16 16 17 18 17 20 22 18 16 14 10 7 4 7 7 6 7 4 10 29 33 23 27 36 37 39 44 48 50 50 51 52 52 52 51 49
6 6 6 5 5 5 5 5 5 5 5 4 4 4 4 4 5 6 7 7 7 7 7 7 6 6 6 4 4 4 5 6 6 7 8 8 8 10 10 11 13 14 17 16 16 19 15 9 15 22 19 16 16 16 18 18 17 21 22 19 18 14 10 6 4 9 12 13 15 10 12 26 31 26 32 40 38 41 45 47 49 49 50 52 52 51 50 49
6 6 5 5 4 4 5 6 6 6 6 6 6 5 5 5 6 7 7 8 8 8 8 8 7 7 7 5 5 5 5 6 6 8 9 8 9 11 10 11 12 14 17 17 17 20 14 9 18 23 18 17 17 15 15 16 17 20 23 23 21 18 17 15 13 16 17 16 16 8 10 23 33 32 37 40 39 42 44 45 48 48 50 51 50 51 50 49
5 5 4 3 3 3 4 5 6 6 6 6 5 5 5 6 6 7 8 8 9 9 9 9 8 8 8 6 6 6 5 5 6 8 9 9 10 11 11 12 13 13 16 17 18 19 15 12 17 18 14 13 12 10 12 16 19 23 26 27 25 24 24 22 20 17 13 15 14 5 11 30 40 39 41 41 40 43 43 44 47 48 49 50 50 51 51 49
4 4 3 2 2 3 4 5 5 6 6 6 5 6 6 6 7 8 8 9 9 9 9 10 9 8 8 7 7 6 6 6 7 8 9 10 11 11 12 13 13 14 16 17 19 20 17 17 16 11 7 7 9 11 15 22 26 26 27 28 28 28 27 25 21 14 12 16 15 14 24 44 48 43 41 41 40 43 43 43 46 47 47 48 49 50 50 49
3 3 2 2 2 3 4 5 6 7 7 6 6 7 7 7 7 8 9 10 10 10 10 10 10 10 9 8 7 7 8 8 8 8 9 10 10 11 12 13 13 14 15 16 18 19 20 20 18 14 13 14 19 21 21 22 26 27 27 28 29 28 28 27 22 19 20 22 25 30 37 47 49 45 41 41 41 41 43 44 46 46 46 47 48 49 50 49
2 2 1 1 2 3 4 5 6 7 7 8 8 7 7 8 8 9 9 10 10 10 11 11 11 11 10 9 8 8 8 9 9 10 10 11 11 12 13 13 14 14 15 17 17 18 21 22 20 20 23 25 26 25 20 19 25 28 27 26 27 27 27 28 26 26 26 21 28 39 39 40 48 47 40 40 41 41 44 45 45 46 46 47 47 47 48 49
2 2 2 3 3 4 5 6 6 7 7 8 8 8 8 8 9 9 10 10 11 11 11 12 12 12 12 10 9 9 9 10 10 10 10 12 12 13 13 14 14 14 15 16 17 19 21 22 22 25 29 29 25 21 20 22 28 30 26 23 24 26 27 28 28 30 27 25 33 44 42 42 47 44 38 40 42 42 45 44 45 46 46 46 46 46 47 48
2 2 3 3 4 5 6 6 7 7 7 8 8 8 9 9 9 10 10 11 12 12 12 12 12 13 13 12 11 11 10 10 10 10 11 13 13 14 15 15 14 15 15 16 18 19 19 22 23 26 32 30 22 21 25 28 32 30 22 17 19 24 27 29 30 30 29 34 40 43 44 45 42 38 39 44 43 44 46 44 45 45 45 45 46 45 46 47
2 2 3 4 5 6 6 7 7 8 8 9 9 9 9 9 9 10 11 12 12 13 13 13 13 13 13 13 13 12 11 11 12 12 13 14 14 15 16 15 15 16 17 17 19 19 20 23 23 26 34 31 24 25 29 29 32 29 18 13 16 21 26 28 30 30 31 36 41 39 43 46 42 38 42 45 44 46 47 45 46 45 44 45 45 45 46 46
2 3 3 4 5 6 7 7 8 8 8 9 9 9 9 9 9 10 11 12 13 13 13 13 14 14 14 14 14 13 12 13 12 13 14 15 15 16 16 17 17 18 18 18 19 20 21 24 25 26 31 32 28 29 31 30 30 25 17 17 19 20 24 28 30 32 33 36 38 37 41 43 43 41 44 45 45 47 47 47 47 45 45 45 45 45 45 45
3 3 4 5 6 6 7 8 8 9 9 9 9 10 10 10 10 11 12 13 13 13 14 14 14 15 15 15 15 14 14 14 14 15 15 15 16 17 17 18 18 19 20 19 19 22 22 24 27 24 25 32 32 29 33 31 21 16 19 23 21 20 24 30 33 36 36 35 36 38 40 42 43 43 46 47 47 47 48 48 47 46 46 45 44 44 45 45
Wind_Direction
175 172 161 126 95 88 91 90 82 76 76 81 80 72 70 69 77 88 92 96 96 94 93 95 94 89 86 79 73 67 65 74 64 50 60 64 58 52 50 49 48 49 47 46 42 41 41 39 36 30 39 33 18 18 19 23 30 54 61 30 18 356 330 321 329 334 332 328 331 332 331 330 329 320 320 332 334 323 316 313 311 307 307 307 304 300 298 296
174 178 172 143 110 102 105 103 88 78 67 65 69 70 73 75 87 96 98 101 99 97 95 94 91 85 81 70 66 63 62 72 68 57 63 61 55 51 49 46 46 47 44 42 39 38 40 43 39 39 53 30 6 22 18 15 26 57 68 9 5 1 320 320 333 335 333 332 334 333 334 334 325 316 317 328 332 318 313 312 308 304 307 307 304 302 300 300
167 172 167 153 129 127 129 104 90 93 66 59 67 73 80 85 93 99 99 100 101 99 96 90 81 74 69 63 65 64 63 70 68 63 64 58 54 51 49 46 47 48 44 41 40 39 40 43 38 44 62 30 5 24 22 16 23 46 51 5 12 10 315 327 337 335 335 336 338 337 337 335 322 316 321 329 328 316 310 309 308 311 315 313 308 306 304 305
157 160 159 158 143 149 160 112 92 102 61 58 73 82 88 94 97 100 99 98 100 100 96 86 75 69 68 66 68 69 67 69 70 67 63 58 53 51 48 47 48 46 43 40 38 36 37 37 35 40 49 27 11 17 18 15 17 23 22 12 7 356 329 334 339 336 339 344 343 341 341 339 326 322 327 329 325 319 314 310 312 318 321 320 316 312 309 307
150 156 160 156 148 160 179 162 83 84 61 60 80 92 94 100 102 102 99 97 98 98 95 86 75 71 73 72 69 72 72 69 69 66 63 57 53 53 48 47 47 45 42 37 31 28 29 29 29 35 39 30 17 13 19 20 14 11 12 10 357 352 344 337 342 341 340 346 344 344 346 345 331 323 326 326 324 322 319 316 316 319 321 322 320 318 315 311
149 159 163 154 148 161 177 188 148 96 78 68 87 97 98 103 105 103 100 97 95 91 86 79 76 75 78 79 72 63 69 79 72 65 64 57 56 54 48 46 44 40 35 30 26 25 29 30 29 28 26 23 16 11 16 21 19 11 3 2 357 356 353 343 351 352 344 346 347 349 348 342 327 322 326 328 324 322 318 317 318 320 322 324 325 324 320 316
157 164 166 158 157 163 168 177 145 107 92 89 95 100 104 108 106 105 102 96 90 82 74 73 78 85 85 84 79 66 66 84 76 64 59 54 54 47 43 42 37 33 30 25 21 24 25 27 29 27 26 16 12 16 10 11 17 11 358 0 1 360 2 353 359 360 346 344 348 351 344 335 335 330 331 331 325 322 316 316 318 320 324 327 327 326 323 320
168 166 167 169 169 162 161 170 140 107 99 101 102 107 111 112 111 109 104 95 86 80 77 80 87 97 94 86 88 77 68 79 71 61 56 51 51 43 40 38 31 28 24 18 16 20 18 17 23 25 28 16 15 20 10 10 12 6 1 8 5 3 10 359 358 358 345 343 347 352 343 336 343 339 333 333 326 323 319 319 321 322 327 328 328 326 325 322
170 164 165 169 165 155 152 145 136 119 105 105 110 113 114 117 115 109 103 94 86 83 87 95 98 97 90 85 91 86 76 74 65 60 54 48 47 40 36 31 26 21 15 14 13 15 15 17 23 22 23 21 17 13 13 19 11 7 12 20 11 5 7 354 350 350 345 347 347 350 346 337 343 339 333 332 326 325 324 325 326 328 331 332 333 329 324 321
167 165 163 160 155 155 150 138 139 129 112 113 118 115 116 119 115 109 101 93 89 88 96 103 101 98 92 82 82 82 77 69 61 56 49 42 40 34 28 23 18 15 11 11 11 14 18 18 22 23 22 19 11 8 24 23 12 17 21 19 13 6 359 343 341 346 350 351 346 350 347 337 340 336 330 329 326 327 326 328 329 333 335 335 338 335 326 322
159 162 159 154 153 150 153 157 147 130 120 123 120 114 117 119 115 108 98 95 97 98 102 99 97 115 106 84 73 78 73 63 57 52 45 40 37 30 22 16 10 10 9 8 10 16 19 16 21 23 20 15 10 21 31 16 14 24 23 18 11 1 351 330 333 342 351 351 347 352 347 333 337 330 325 326 325 326 326 328 331 334 335 335 340 340 331 323
157 160 157 152 147 143 156 159 145 134 131 128 120 116 119 118 112 101 93 96 103 107 107 103 110 119 100 91 83 76 68 60 56 48 42 36 31 25 16 10 7 7 9 11 14 18 16 14 20 22 17 14 21 33 23 14 20 21 18 21 8 2 342 323 333 342 349 352 349 352 348 328 327 325 323 324 324 326 326 326 329 331 331 334 339 338 333 325
167 162 153 146 140 142 150 143 141 140 133 127 121 123 124 117 110 102 102 106 114 122 114 104 105 97 90 97 88 73 68 64 58 45 38 33 26 20 13 8 6 9 13 14 18 20 16 15 19 18 17 21 27 33 17 16 18 11 15 18 6 16 338 323 337 343 346 352 349 349 351 327 322 326 324 324 322 323 322 320 324 327 327 332 336 334 332 327
166 151 141 145 141 140 142 137 139 135 127 126 127 132 126 118 114 111 118 122 128 126 111 102 96 92 94 93 81 70 64 56 47 36 31 28 21 16 13 9 10 14 16 17 21 20 17 19 18 11 18 23 22 25 24 18 9 7 17 12 1 10 350 333 342 342 341 351 349 347 353 331 320 327 325 322 318 316 315 314 321 325 324 329 334 334 331 327
153 141 141 148 140 134 139 135 133 127 124 127 131 134 129 125 121 123 131 127 123 113 106 105 93 92 101 89 71 59 54 47 40 33 27 22 17 14 11 10 14 19 19 20 21 19 19 20 14 13 23 26 24 29 28 11 5 12 20 6 359 1 358 352 343 338 336 346 350 348 353 332 316 323 320 316 311 308 310 310 318 323 323 330 335 335 332 328
142 141 143 142 134 134 135 129 126 123 120 120 122 127 131 132 127 135 140 125 114 107 105 104 94 91 95 83 63 55 56 45 36 31 26 22 18 14 12 12 17 20 20 21 19 17 18 17 16 17 21 25 28 34 33 352 5 17 21 9 0 355 356 354 336 337 335 342 352 354 355 330 309 314 312 310 305 303 307 307 312 319 324 333 338 337 333 328
145 143 141 136 133 133 128 124 123 121 117 112 111 115 126 137 137 139 133 116 108 105 104 101 94 88 82 76 65 62 58 42 33 28 22 20 17 16 16 16 19 20 18 21 20 17 16 16 19 17 18 21 20 27 36 5 6 14 16 9 359 352 351 343 336 340 337 340 351 0 359 323 305 309 306 307 303 301 305 305 308 317 326 335 339 340 335 329
147 141 137 135 132 128 123 122 123 121 118 115 113 112 120 135 139 134 124 113 106 105 104 93 87 86 79 71 61 56 48 36 29 24 19 15 15 18 18 17 20 20 22 27 19 18 21 16 19 23 21 18 12 21 30 20 8 11 13 4 353 351 351 342 339 342 339 337 344 356 357 318 303 306 303 304 302 301 304 303 306 316 327 334 338 340 337 329
146 140 138 135 128 125 123 121 120 115 115 119 122 121 123 128 129 128 123 114 110 109 99 88 87 85 77 67 55 49 42 31 26 25 18 14 17 17 16 19 21 20 24 26 15 21 21 7 18 24 20 19 18 23 25 15 11 13 11 354 348 350 347 342 343 349 341 331 337 346 343 314 299 302 302 302 301 302 305 303 307 317 325 333 335 337 337 330
142 139 138 133 127 127 125 122 118 115 116 119 122 126 121 111 106 114 117 114 111 105 95 90 85 77 71 63 55 49 38 29 28 24 18 18 19 14 16 23 23 20 22 22 24 27 15 9 27 25 19 22 22 25 20 8 10 13 3 345 349 348 341 345 352 354 341 328 337 343 332 309 297 301 300 301 302 302 304 303 310 319 326 334 333 331 332 329
138 138 137 132 130 130 126 122 120 121 123 122 122 119 110 101 94 99 114 113 104 96 91 85 77 70 64 57 52 44 33 30 26 20 20 23 20 16 20 23 20 18 21 22 26 26 13 22 32 23 17 19 19 23 16 8 9 6 353 346 349 344 338 351 359 352 343 330 329 331 328 307 294 301 301 300 301 301 304 307 315 323 329 334 332 328 329 328
138 138 137 134 132 130 125 122 126 130 130 128 126 113 104 101 96 101 114 106 94 87 84 77 70 65 60 52 47 38 32 32 24 21 26 25 22 19 19 20 19 22 28 28 27 25 21 28 30 20 18 18 16 19 11 9 11 357 350 347 346 343 339 351 2 356 349 335 320 318 325 305 293 303 304 300 301 302 304 311 319 324 327 330 330 330 328 328
139 138 139 137 133 130 126 126 132 137 135 131 126 114 107 105 104 107 107 96 88 82 77 72 66 62 58 52 46 40 35 32 25 27 29 25 24 21 17 20 23 28 31 31 30 28 29 29 23 18 20 18 15 14 8 9 13 2 352 346 342 345 344 342 354 2 357 336 319 320 323 303 293 306 306 302 301 302 307 315 322 323 324 328 331 331 327 327
140 141 145 140 135 133 130 130 132 134 134 129 125 119 115 113 111 107 97 89 83 77 72 68 64 58 54 49 43 37 33 31 27 28 28 25 24 20 18 21 22 27 27 25 27 29 32 27 19 19 20 16 13 11 8 8 14 11 355 346 341 346 348 336 347 359 358 340 316 325 321 295 299 311 307 305 304 307 315 321 325 325 328 330 330 329 325 325
144 147 148 140 136 135 132 131 132 132 133 133 132 127 122 118 112 103 94 84 72 68 66 65 60 53 50 46 37 27 27 28 25 28 28 25 24 20 20 22 21 24 24 22 23 26 29 25 20 20 17 14 11 9 8 8 12 12 356 349 345 343 343 341 347 348 345 338 322 329 326 298 313 313 307 312 313 315 322 325 327 330 332 327 321 324 323 323
149 151 149 142 139 137 136 135 141 145 147 150 148 137 129 118 108 98 88 77 60 55 57 59 56 49 48 48 38 25 20 22 21 26 27 24 24 22 19 22 24 25 24 21 20 20 23 23 21 19 14 12 11 7 7 7 8 6 358 354 351 344 339 339 344 334 321 322 327 339 349 323 315 310 311 317 316 319 325 326 329 332 327 318 317 320 322 325
153 155 153 148 145 145 146 150 165 178 180 175 169 157 149 132 122 105 81 81 45 37 45 50 52 50 48 47 39 31 30 24 19 22 25 22 23 22 18 20 24 26 26 21 14 11 18 20 19 16 12 9 11 8 4 6 5 1 2 1 357 348 342 335 334 322 304 317 327 1 342 321 305 310 315 314 317 322 324 325 326 324 321 319 320 320 323 329
157 161 160 158 158 158 162 172 184 196 199 194 194 195 198 202 178 155 79 96 2 13 33 44 54 58 50 47 37 35 36 26 20 23 23 20 22 22 19 19 20 24 28 24 13 8 13 15 14 13 11 9 10 7 2 4 1 358 4 8 2 347 338 325 316 310 310 316 315 344 339 323 300 313 313 309 319 322 320 321 318 317 319 322 323 325 328 331
161 164 167 169 170 171 177 186 195 198 199 202 205 210 212 206 187 180 38 188 208 51 69 59 63 62 52 48 37 34 31 24 25 24 19 18 20 19 17 18 16 20 25 24 17 12 8 10 12 10 10 10 7 3 3 2 358 360 5 7 8 360 345 323 289 289 300 297 294 344 347 338 310 311 306 312 321 318 317 318 317 317 320 323 327 331 332 330
164 169 176 177 176 184 190 195 201 195 194 193 192 190 180 173 165 157 268 239 207 194 151 76 73 69 59 48 37 34 28 24 26 23 17 19 19 16 17 18 16 15 18 17 14 10 6 5 8 8 8 7 3 2 5 2 360 3 4 4 10 13 360 333 278 282 282 279 305 340 341 332 312 302 302 316 319 316 315 317 320 322 322 325 330 332 331 330
169 178 180 177 185 198 200 198 192 181 175 174 174 172 162 160 161 151 243 208 186 179 183 144 93 81 68 53 41 35 29 25 23 18 14 17 16 13 17 20 19 16 9 7 6 7 7 1 2 4 4 3 1 2 5 4 5 6 4 4 9 8 0 341 301 295 260 285 305 325 331 321 277 284 304 315 319 317 317 319 322 324 324 328 329 329 331 334
176 181 179 185 201 207 205 193 174 156 156 167 175 179 173 163 189 252 210 182 178 180 186 181 123 93 78 60 42 33 26 21 17 10 6 10 11 12 17 20 21 22 360 357 2 359 354 352 357 358 358 1 1 3 6 4 6 8 6 9 12 4 357 15 349 293 247 261 302 325 330 307 272 293 308 316 319 319 319 321 324 327 328 328 327 327 331 336
183 186 194 210 214 209 200 182 167 155 156 168 180 187 181 166 215 257 192 176 194 207 203 200 165 109 93 65 37 32 22 14 11 8 6 8 11 17 20 17 18 21 5 358 3 356 345 341 350 351 354 358 356 2 8 4 5 10 10 13 22 26 3 350 326 318 273 278 308 323 322 287 292 309 316 317 316 318 321 324 327 328 326 326 326 327 331 336
191 200 210 214 214 201 189 181 177 173 168 166 174 180 179 191 242 224 184 188 218 197 189 190 177 138 109 74 38 29 18 12 8 4 5 7 12 19 20 15 15 14 9 6 4 357 345 318 336 344 349 354 354 360 6 4 7 10 10 15 27 49 58 305 308 317 289 295 311 320 313 292 305 312 315 314 314 322 325 326 328 325 325 326 327 328 332 337
201 209 211 206 203 193 189 191 188 185 179 171 174 177 180 232 244 198 188 203 207 185 190 198 184 165 134 78 32 16 12 11 4 1 1 3 11 15 15 14 12 9 10 9 1 357 350 307 322 337 343 350 350 352 360 5 10 8 8 12 11 7 263 261 279 283 283 293 308 312 298 299 304 308 313 315 323 327 325 324 324 324 326 327 327 331 335 337
206 207 204 193 192 189 190 194 193 188 185 187 194 193 201 241 221 191 193 202 196 192 199 200 199 231 240 69 25 5 4 3 358 356 356 0 7 10 11 11 8 7 8 6 2 359 350 319 324 336 342 348 346 344 353 3 9 6 8 10 2 348 323 291 283 288 289 283 288 299 302 310 315 318 322 324 325 325 321 321 322 323 325 327 331 335 336 338
205 200 191 182 188 190 189 192 192 190 190 198 208 214 223 223 196 189 194 200 200 204 209 212 225 243 253 290 357 360 359 357 353 350 352 358 358 1 7 7 5 6 4 3 3 357 343 328 341 345 340 342 340 339 345 354 2 3 3 8 4 357 355 338 306 299 304 273 285 302 308 315 320 320 320 323 325 325 323 321 322 325 329 332 334 336 336 339
199 192 182 179 183 182 184 186 186 188 192 202 216 237 238 223 216 208 204 207 209 214 222 227 234 232 238 266 296 337 347 351 353 346 346 352 350 353 1 1 2 3 360 0 0 355 344 332 347 349 340 338 335 335 340 343 350 352 353 4 11 11 339 339 329 296 312 307 297 309 315 315 314 306 316 325 331 331 326 323 325 329 333 334 335 336 338 340
192 186 182 184 183 184 188 188 187 187 194 209 224 248 238 221 221 213 207 213 215 220 225 226 234 232 228 247 284 314 329 340 347 342 342 347 344 346 351 355 360 359 357 359 357 355 350 331 338 344 337 333 328 326 331 331 335 342 347 354 4 9 328 325 320 243 274 305 295 314 318 314 316 311 317 331 336 329 323 323 327 332 334 335 336 337 339 340
186 183 184 187 191 198 203 203 209 211 218 235 234 254 258 230 223 217 216 222 223 224 227 227 230 225 224 240 266 297 314 325 336 337 337 341 342 342 344 349 355 355 355 357 355 354 351 327 323 337 337 329 317 311 313 316 320 330 338 337 338 349 343 325 301 251 255 236 287 328 302 303 317 322 323 335 334 322 320 322 326 332 333 335 337 338 339 341
182 183 186 189 196 207 211 213 223 223 222 231 240 264 271 244 233 227 224 228 228 230 233 230 225 221 227 238 258 292 300 303 324 336 332 334 338 340 340 341 348 353 353 353 354 354 351 323 319 335 336 321 307 300 298 302 306 319 331 327 320 332 340 327 291 253 251 241 268 290 275 299 322 335 329 333 329 319 319 321 326 332 334 336 338 338 339 340
187 191 196 200 205 215 222 225 229 226 224 230 243 255 258 246 239 232 229 231 234 239 242 236 230 227 231 241 259 288 297 293 309 330 330 329 331 332 334 335 341 348 349 351 355 353 349 326 324 335 335 322 312 298 291 292 295 309 321 320 312 316 315 310 281 277 284 276 278 270 259 299 327 336 325 327 324 317 319 321 328 334 335 337 339 339 340 341
192 198 201 207 215 226 233 236 240 238 235 238 245 247 246 246 243 238 237 236 240 248 247 242 239 235 241 252 258 280 299 291 295 317 325 325 325 325 328 330 334 341 346 350 351 351 352 335 330 335 333 323 313 301 295 293 294 307 318 320 315 311 309 306 294 290 290 281 281 261 243 297 323 327 321 324 321 317 320 323 329 335 335 337 338 339 341 342
196 198 199 206 222 237 241 247 251 246 241 242 246 248 247 247 245 243 242 241 244 249 247 246 245 242 248 254 256 274 291 289 296 309 316 321 322 321 321 324 329 333 339 345 347 350 354 342 333 333 334 331 322 314 314 310 310 313 316 316 314 310 306 302 299 297 287 280 281 216 243 297 319 327 324 324 322 321 325 326 331 335 335 337 339 341 342 341
204 206 210 219 239 256 254 258 260 250 246 247 247 251 252 252 250 246 246 247 247 248 249 249 249 249 252 253 258 270 278 286 298 302 309 317 319 318 318 320 323 325 331 338 342 345 345 341 337 330 324 328 316 313 318 314 311 308 307 307 306 303 297 296 297 287 277 286 274 241 271 301 322 334 329 324 323 325 329 330 332 335 335 338 341 342 342 341
208 207 209 237 268 273 268 271 268 257 257 260 256 255 256 256 254 249 248 249 248 249 251 251 252 253 254 256 262 268 274 284 290 293 303 310 312 316 316 315 317 319 323 328 333 337 336 337 338 325 313 314 312 315 318 311 304 304 306 302 298 296 293 291 284 273 285 292 276 275 287 300 318 333 331 325 326 328 331 333 334 335 337 340 342 342 341 340
214 211 225 297 301 293 288 284 274 265 264 267 265 261 259 257 256 253 251 250 251 253 254 255 256 255 256 261 266 269 274 281 286 292 299 303 307 312 314 315 314 311 316 322 324 328 327 331 336 327 320 324 324 322 320 311 307 310 311 303 295 292 288 285 282 288 300 288 279 299 305 297 312 329 330 326 329 330 332 334 334 336 339 340 341 341 341 341
253 258 279 306 311 309 308 298 283 274 269 268 265 262 261 262 261 258 254 252 254 255 256 258 258 257 259 262 265 270 277 283 289 294 298 301 305 307 310 316 313 306 311 317 319 321 320 323 331 327 325 330 330 324 322 321 318 318 315 305 295 289 286 289 294 300 298 274 282 308 309 299 315 333 330 326 330 329 331 334 334 336 339 338 339 340 341 341
268 277 290 307 312 314 314 307 293 282 273 268 266 264 265 267 266 262 258 256 258 259 260 262 261 260 261 262 266 274 279 286 292 295 299 302 304 305 307 312 312 308 308 311 316 319 315 318 326 324 323 332 336 328 328 329 326 325 319 301 290 286 286 292 301 306 297 285 297 311 305 306 327 337 327 327 329 327 330 333 334 336 337 337 338 339 341 342
273 280 294 308 315 317 316 310 299 287 276 270 269 268 269 271 270 266 263 261 262 263 263 265 266 264 262 263 268 275 281 286 291 295 300 302 304 305 304 306 311 311 308 307 311 314 312 314 321 320 321 332 341 332 330 329 322 319 316 305 296 289 287 292 303 310 302 299 310 311 302 313 335 336 325 327 328 326 330 332 334 336 336 336 338 339 340 341
276 285 297 306 314 317 315 312 302 290 281 274 272 272 271 274 274 271 268 265 264 264 265 267 267 266 266 266 270 276 282 286 290 295 299 302 304 304 302 303 308 309 309 307 305 310 313 311 317 319 317 326 336 331 328 326 316 310 318 326 316 300 299 304 308 310 308 309 312 305 300 318 335 331 325 326 326 327 330 332 333 335 334 335 338 338 339 340
284 293 299 306 315 316 313 312 304 295 288 278 274 273 273 275 275 271 269 268 266 266 267 267 268 269 270 271 272 276 281 286 291 295 298 302 305 305 303 303 303 304 309 308 302 307 311 310 316 318 312 319 330 330 326 326 319 316 328 328 319 311 312 313 312 314 316 314 308 304 311 326 333 329 326 328 327 328 329 331 333 333 333 335 336 338 339 340